SCP
0 -0 0 0 0 0 0 0 0 0 0 0 0 0 -0 0 0 0 0 0 0 0 0 0 -0 -0 -0 -0 -0 -0 -0 -0 -0 -0 -0 -0 -0 -0 -0 -0 -0 -0 -0 -0 -0 -0 -0 -0 -0
0 0 0 0 0 0 0 0 0 0 0 0 0 0 0 0 0 0 0 -0 0 0 0 0 -0 -0 -0 -0 -0 -0 -0 -0 -0 -0 -0 -0 -0 -0 -0 -0 -0 -0 -0 -0 -0 -0 -0 -0 -0
0 0 0 0 0 0 0 0 0 0 0 0 0 0 0 0 0 0 0 -0 0 0 0 0 0 -0 -0 -0 -0 -0 -0 -0 -0 -0 -0 -0 -0 -0 -0 -0 -0 -0 -0 -0 0 -0 -0 -0 -0
0 0 0 0 0 0 0 0 0 0 0 0 0 0 0 0 0 0 0 0 0 0 0 0 -0 -0 -0 -0 -0 -0 -0 -0 -0 -0 -0 -0 -0 -0 -0 -0 0 0 0 0 0 0 0 0 0
0 0 0 0 0 0 0 0 0 0 0 0 0 0 0 0 0 0 -0 -0 -0 0 0 0 0 0 -0 -0 -0 -0 -0 -0 -0 -0 -0 -0 -0 -0 -0 -0 0 0 0 0 0 0 0 0 -0
0 0 0 0 0 0 0 0 0 0 0 0 0 0 0 0 0 0 0 -0 0 -0 0 0 0 0 0 0 -0 -0 -0 -0 0 -0 -0 -0 -0 0 0 0 0 0 0 0 0 0 0 -0 -0
0 0 0 0 0 0 0 0 0 0 0 0 0 0 0 0 0 0 -0 0 0 0 0 0 0 0 0 0 0 0 0 0 0 0 0 0 0 0 0 0 0 0 0 0 0 0 0 0 0
0 0 0 0 0 0 0 0 0 0 0 0 0 0 0 0 0 0 0 0 0 0 0 0 0 0 0 0 0 0 0 0 0 0 0 0 0 0 0 0 0 0 0 0 0 0 0 0 0
0 0 0 0 0 0 0 0 0 0 0 0 0 0 0 0 0 0 0 0 0 0 0 0 0 0 0 0 0 0 0 0 0 0 0 0 0 0 0 0 0 0 0 0 0 0 0 0 0
0 0 0 0 0 0 0 0 0 0 0 0 0 0 0 0 0 0 0 0 0 0 0 0 0 0 0 0 0 0 0 0 0 0 0 0 0 0 0 0 0 0 0 0 0 0 0 0 0
0 0 0 0 0 0 0 0 0 0 0 0 0 0 0 0 0 0 0 0 -0 0 0 0 0 0 0 0 0 0 0 0 0 0 0 0 0 0 0 0 0 0 0 0 0 0 0 0 0
0 0 0 0 0 0 0 0 0 0 0 0 0 0 0 0 0 0 0 0 0 0 0 0 0 0 0 0 0 0 0 0 0 0 0 0 0 0 0 0 0 0 0 0 0 0 0 0 0
0 0 0 0 0 0 0 0 0 0 0 0 0 0 0 0 0 0 0 0 0 0 0 0 0 0 0 0 0 0 0 0 0 0 0 0 0 0 0 0 0 0 0 0 0 0 0 0 0
0 0 0 0 0 0 0 0 0 -0 0 0 0 0 0 0 0 0 0 0 0 0 0 0 0 0 0 0 0 0 0 0 0 0 0 0 0 0 0 0 0 0 0 0 0 0 0 0 0
0 0 0 0 0 0 0 -0 0 0 0 0 0 0 0 0 0 0 0 0 0 0 0 0 0 0 0 0 0 0 0 0 0 0 0 0 0 0 0 0 0 0 0 0 0 0 0 0 0
0 0 0 0 0 0 0 -0 0 0 0 0 0 0 0 0 0 0 0 0 0 0 0 0 0 0 0 0 0 0 0 0 0 0 0 0 0 0 0 0 0 0 0 0 0 0 0 0 0
0 0 0 0 0 0 0 0 0 0 0 0 0 0 0 0 0 0 0 0 0 0 0 0 0 0 0 0 0 0 0 0 0 0 0 0 0 0 0 0 0 0 0 0 0 0 0 0 0
0 0 0 0 0 0 0 0 0 0 0 0 -0 0 0 0 0 0 0 0 0 0 0 0 0 0 0 0 0 0 0 0 0 0 0 0 0 0 0 0 0 0 0 0 0 0 0 0 0
0 0 0 0 0 0 0 -0 0 0 0 0 0 0 0 0 0 0 0 0 0 0 0 0 0 0 0 0 0 0 0 0 0 0 0 0 0 0 0 0 0 0 0 0 0 0 0 0 0
0 0 0 0 0 0 0 -0 0 0 0 0 0 0 0 0 0 0 0 0 0 0 0 0 0 0 0 0 0 0 0 0 0 0 0 0 0 0 0 0 0 0 0 0 0 0 0 0 0
0 0 0 0 0 0 0 -0 0 0 0 0 0 0 0 0 0 0 0 0 0 0 0 0 0 0 0 0 0 0 0 0 0 0 0 0 0 0 0 0 0 0 0 0 0 0 0 0 0
0 0 0 0 0 0 0 -0 0 0 0 0 0 0 0 0 0 0 0 0 0 0 0 0 0 0 0 0 0 0 0 0 0 0 0 0 0 0 0 0 0 0 0 0 0 0 0 0 0
0 0 0 0 0 0 0 0 0 0 0 0 -0 0 0 0 0 0 0 0 0 0 0 0 0 0 0 0 0 0 0 0 0 0 0 0 0 0 0 0 0 0 0 0 0 0 0 0 0
0 0 0 0 0 0 0 0 0 0 0 0 0 0 0 0 0 0 0 0 0 0 0 0 0 0 0 0 0 0 0 0 0 0 0 0 0 0 0 0 0 0 0 0 0 0 0 0 0
0 0 0 0 0 0 0 0 0 0 0 0 0 0 0 0 0 0 0 -0 -0 0 0 0 0 0 0 0 0 0 0 0 0 0 0 0 0 0 0 0 0 0 0 0 0 0 0 0 0
0 0 0 0 0 0 0 0 0 0 0 0 0 0 0 0 0 0 0 0 0 0 0 0 0 0 0 0 0 0 0 0 0 0 0 0 0 0 0 0 0 0 0 0 0 0 0 0 0
0 0 0 0 0 0 0 0 0 0 0 0 0 0 0 0 0 0 -0 0 0 0 0 0 0 0 0 0 0 0 0 0 0 0 0 0 0 0 0 0 0 0 0 0 0 0 0 0 0
0 0 0 0 0 0 0 0 0 0 0 0 0 0 0 0 0 -0 -0 -0 0 0 0 0 0 0 0 0 0 0 0 0 0 0 0 0 0 0 0 0 0 0 0 0 0 0 0 0 0
0 0 0 0 0 0 0 0 0 0 0 0 0 0 0 0 0 0 -0 -0 -0 0 0 0 0 0 0 0 0 0 0 0 0 0 0 0 0 0 0 0 0 0 0 0 0 0 0 0 0
0 0 0 0 0 0 0 0 0 0 0 0 0 0 0 0 0 0 -0 -0 -0 -0 0 0 0 0 0 0 0 0 0 0 0 0 0 0 0 0 0 0 0 0 0 0 0 0 0 0 0
Wind_Speed_500mb
8 6 6 5 7 9 7 11 5 5 4 5 15 11 18 9 12 9 10 24 22 31 32 33 32 29 30 27 29 28 26 25 25 26 27 24 21 18 15 15 15 15 15 16 17 14 12 12 13
10 7 3 3 7 4 10 9 12 11 4 17 13 9 4 12 14 6 19 26 24 31 35 35 36 35 35 35 34 33 31 32 27 26 21 20 20 18 16 15 15 16 18 22 20 18 17 18 19
9 7 3 8 6 9 9 10 10 5 16 11 7 10 7 7 19 12 21 24 26 34 36 38 37 37 34 33 29 33 32 30 30 23 23 21 20 19 18 18 18 19 20 19 19 19 18 18 19
7 5 6 7 12 14 14 13 8 5 10 15 10 7 10 19 7 19 26 24 30 38 40 39 38 37 36 33 33 29 32 30 25 25 22 20 19 18 16 14 16 17 17 17 17 16 15 17 18
8 1 4 2 11 12 12 19 21 12 5 11 16 8 10 14 29 17 19 24 32 40 44 41 40 38 37 36 33 33 29 25 24 23 21 19 17 16 15 15 16 15 13 9 6 4 4 5 6
2 3 4 8 10 12 14 22 15 11 12 7 10 6 12 21 26 26 23 23 31 37 44 44 43 40 38 36 34 33 28 26 25 25 23 21 19 17 16 15 13 10 7 4 2 2 3 5 6
7 7 7 7 10 13 11 11 12 12 7 15 9 7 11 24 25 28 26 28 33 40 47 46 44 42 39 37 36 32 31 28 27 25 24 22 20 18 16 15 14 12 9 4 2 4 6 8 11
4 8 4 8 5 11 11 10 5 22 19 14 22 12 11 11 28 32 33 34 38 43 49 50 47 45 43 42 40 37 35 32 30 28 25 22 21 19 19 17 14 12 9 6 4 3 6 8 10
6 5 5 10 7 10 2 5 6 9 14 16 21 36 24 20 24 36 41 44 47 50 54 55 54 51 48 46 44 42 38 36 34 32 30 26 25 22 20 18 15 13 9 7 5 6 9 12 14
8 6 15 12 7 8 9 8 20 8 14 17 34 45 47 41 35 43 47 49 51 53 55 59 60 57 54 52 51 47 45 42 40 37 35 33 31 29 25 21 18 15 12 11 11 12 14 16 18
12 12 11 16 29 18 12 12 19 13 13 42 43 52 53 52 51 54 56 57 55 54 58 59 61 62 61 60 57 54 51 47 45 43 41 38 35 32 28 26 24 20 17 14 14 15 15 16 18
6 27 23 19 27 14 10 14 12 34 66 64 53 42 42 52 62 67 67 65 61 61 62 62 63 64 65 64 63 58 56 53 50 48 45 42 38 35 33 30 26 21 19 16 14 14 15 18 21
10 11 31 48 43 51 35 38 25 49 82 68 61 61 61 62 65 66 65 65 67 68 65 66 66 67 68 69 67 65 62 59 55 54 50 47 43 41 37 34 31 27 23 21 19 18 18 19 20
9 20 30 31 40 29 16 27 10 75 71 68 57 64 68 73 75 70 72 73 74 71 70 69 71 71 72 72 72 71 67 62 62 60 56 52 49 45 41 37 34 29 27 25 23 21 20 20 21
14 16 17 16 33 18 18 23 23 97 69 72 75 66 61 64 68 81 82 80 79 76 72 75 75 76 78 77 76 76 72 69 69 65 61 57 54 51 46 42 38 33 30 28 24 23 22 23 23
9 3 10 4 14 8 20 35 34 66 53 66 71 68 60 59 68 70 73 79 84 84 83 80 81 83 83 83 80 80 79 76 74 70 66 63 59 55 50 46 43 40 36 33 30 28 27 27 25
5 11 16 24 31 12 16 20 16 31 25 48 58 61 56 63 69 69 72 76 82 82 86 85 85 86 87 87 86 85 82 81 79 75 72 69 65 61 57 53 49 45 42 38 34 31 30 30 29
17 12 12 15 10 9 11 28 31 71 32 58 74 76 81 84 95 88 84 82 84 87 87 88 87 88 88 91 92 90 86 86 83 82 80 75 70 66 61 59 56 51 47 42 37 35 33 32 30
8 12 16 31 18 8 20 38 34 59 49 53 66 87 101 107 112 105 106 104 97 93 92 92 91 91 92 98 101 99 97 94 92 89 85 81 75 70 68 65 61 56 51 46 44 39 35 33 31
20 30 33 35 41 11 34 46 40 34 52 73 75 73 90 106 109 116 113 110 107 101 101 96 92 95 98 102 101 101 99 100 95 93 91 85 81 76 73 70 66 60 57 54 48 42 38 36 30
9 15 36 33 18 13 19 31 29 32 55 81 92 99 84 92 105 103 100 101 96 90 95 94 97 95 101 105 103 104 103 100 100 100 94 92 87 81 78 74 70 65 63 59 53 48 44 38 32
30 25 30 27 7 16 8 25 17 19 23 24 59 72 84 97 106 103 94 84 87 91 81 81 81 87 99 105 109 109 109 106 103 98 95 94 91 86 82 78 75 71 67 64 57 51 48 44 37
20 8 14 8 10 10 12 11 3 16 16 30 39 64 83 78 80 87 86 85 75 62 70 75 76 83 92 100 108 109 108 105 99 95 95 95 91 88 86 83 79 77 72 66 62 58 52 47 41
2 5 4 8 3 14 25 17 4 12 14 13 16 55 61 69 76 81 89 90 73 54 56 67 76 84 89 94 106 110 107 105 99 96 96 93 92 91 89 87 84 79 75 71 66 60 56 50 45
9 9 7 7 2 24 9 14 35 9 20 19 23 48 66 67 68 85 99 99 81 64 64 69 74 82 90 96 100 103 105 99 96 96 95 90 88 93 94 90 88 85 79 74 69 66 61 56 50
16 21 12 14 22 31 10 18 36 19 16 35 45 42 44 48 65 66 77 67 69 68 60 65 73 84 89 86 89 96 100 98 96 95 92 90 87 84 85 87 86 85 80 77 74 71 65 60 56
7 11 10 3 3 5 21 32 37 29 19 12 16 21 46 54 57 60 73 65 57 60 55 65 73 76 78 77 85 93 94 96 97 94 89 90 87 85 83 82 82 83 80 79 77 75 69 65 59
13 0 3 1 7 17 18 14 29 38 29 20 16 32 55 55 64 65 61 73 60 51 52 57 66 68 70 71 78 87 92 94 92 92 89 91 90 90 86 83 80 81 82 81 81 78 74 70 65
1 7 7 3 12 31 34 22 47 53 53 29 25 30 54 79 85 82 67 67 67 57 50 46 49 60 65 72 75 80 88 93 92 94 96 96 94 91 88 85 82 80 82 84 84 82 79 76 71
11 25 29 25 22 26 37 42 20 45 50 41 49 41 45 57 67 81 63 66 75 68 58 49 48 54 56 63 68 72 84 91 92 98 104 100 100 97 94 89 84 80 83 86 88 88 85 81 76
Wind_Direction_500mb
223 240 288 305 40 58 269 261 267 244 222 189 148 174 191 185 169 208 176 175 183 179 181 184 174 176 175 177 178 189 189 192 196 199 206 203 202 202 208 217 218 216 232 249 259 262 266 264 268
226 235 263 89 91 31 272 256 234 223 200 146 141 131 170 228 213 221 172 177 182 185 186 187 189 187 186 182 181 182 184 193 190 196 199 206 218 217 215 220 229 236 245 254 269 277 274 271 270
214 222 230 99 123 194 227 237 241 248 179 172 181 219 234 230 225 222 205 198 190 190 193 193 195 199 203 205 208 200 199 197 212 216 217 221 230 237 236 236 239 244 256 268 277 282 283 280 277
197 194 58 99 231 252 214 250 225 200 214 222 213 239 243 227 219 221 219 203 197 194 196 198 198 201 205 211 216 215 214 223 226 234 237 233 231 232 239 248 254 260 263 268 277 283 285 285 288
188 157 55 259 257 261 246 256 199 187 226 222 200 257 243 241 230 224 203 208 208 200 197 201 203 205 210 217 222 226 230 225 225 228 228 228 228 231 238 244 251 255 262 268 276 293 309 313 313
154 87 52 260 248 264 278 251 191 204 214 219 216 241 254 242 233 235 225 219 208 209 204 205 207 209 213 219 221 222 223 220 214 212 216 222 227 229 226 222 219 217 219 229 257 308 319 328 333
124 91 230 257 265 297 256 198 188 196 222 237 231 194 257 241 228 222 225 216 214 209 212 214 214 215 217 220 220 219 221 221 223 223 222 221 219 214 208 199 194 192 193 203 257 320 335 339 336
158 100 271 253 254 277 322 195 308 218 246 240 210 235 264 293 231 218 217 218 218 217 216 220 222 222 222 219 217 217 221 223 223 226 225 219 213 208 203 200 194 192 189 203 228 293 321 330 334
171 66 243 253 201 255 246 231 251 254 244 222 221 243 250 266 225 220 220 220 220 220 221 222 224 224 222 222 222 220 219 223 224 223 220 218 220 221 216 212 206 207 213 237 275 315 334 342 342
160 154 227 219 228 255 293 244 266 253 243 247 245 248 252 254 242 232 235 232 228 226 225 224 225 225 225 224 223 222 223 224 224 222 220 219 218 218 217 217 219 227 243 269 296 320 331 336 338
187 217 219 258 249 272 270 254 254 228 256 246 252 273 256 250 247 243 244 243 250 239 231 231 228 227 227 227 227 225 226 226 225 222 220 220 220 219 219 219 225 234 250 268 289 304 314 322 325
235 250 240 265 272 270 248 266 253 239 260 275 278 271 260 255 251 250 250 251 249 245 241 237 234 232 231 228 229 229 228 228 227 226 225 224 223 220 219 222 231 242 254 264 275 283 296 308 316
226 254 265 271 275 275 273 259 254 269 278 279 272 267 262 260 261 258 256 255 250 247 245 241 238 237 236 232 232 229 228 229 228 226 227 225 224 224 224 228 232 240 251 261 268 279 292 302 310
244 267 278 286 279 266 243 274 267 272 281 282 277 268 263 262 263 260 250 251 249 248 247 244 241 240 239 237 234 233 230 229 228 227 227 226 224 225 228 231 236 242 247 255 261 272 282 292 303
284 310 312 227 260 232 207 287 227 271 277 279 280 275 270 265 260 259 262 259 259 257 252 247 245 242 240 239 237 235 233 230 230 230 228 227 226 227 227 231 235 241 248 255 263 271 282 290 302
341 328 323 315 123 246 163 269 265 280 273 275 277 276 271 270 271 268 264 263 259 255 252 250 245 244 242 240 239 236 233 231 232 231 230 229 228 228 229 232 234 239 246 252 259 269 279 287 293
341 244 231 305 204 193 183 252 279 284 261 273 283 281 276 281 275 271 270 267 263 261 256 251 246 245 244 241 239 237 235 234 233 231 231 230 229 229 230 232 234 237 241 247 255 263 272 282 290
225 217 252 240 277 175 236 253 278 281 274 269 276 275 275 274 274 273 270 272 271 263 258 253 250 246 242 240 238 235 234 234 233 232 232 231 230 230 231 232 232 235 239 245 251 258 268 276 285
192 225 227 258 257 224 237 262 260 272 277 269 267 268 272 273 275 274 271 269 268 266 256 251 249 247 240 236 234 231 232 232 231 230 231 231 230 230 231 232 235 237 241 246 248 254 263 272 281
237 252 262 273 267 208 263 260 262 259 260 266 266 263 264 271 276 280 276 272 267 263 259 252 248 246 243 240 238 234 233 231 233 231 230 230 230 230 232 234 236 237 239 242 245 251 258 265 274
233 231 259 262 314 232 278 272 244 249 250 259 266 265 268 266 274 281 280 281 278 268 257 252 251 250 245 240 233 231 232 232 231 229 229 229 230 231 232 234 235 236 238 242 244 247 253 259 265
263 228 256 269 326 273 17 293 180 226 230 245 254 264 271 277 279 281 283 279 280 279 267 257 252 251 244 236 232 230 232 230 234 236 233 231 230 231 233 234 235 236 238 240 243 245 249 254 258
244 214 231 219 214 327 196 253 89 172 236 244 255 267 273 280 287 293 295 293 291 281 275 265 252 243 241 238 234 231 230 233 236 235 234 234 232 233 233 234 236 236 237 239 241 243 248 252 255
46 67 60 41 92 274 205 190 37 162 211 259 248 258 269 291 295 299 302 302 297 285 265 256 249 244 240 236 232 231 231 231 232 234 234 234 233 234 235 235 235 237 238 238 240 243 245 247 250
142 87 304 315 69 252 115 190 252 255 255 215 245 269 281 288 294 304 308 301 304 300 267 246 246 244 241 234 232 231 231 233 234 235 235 234 232 234 236 235 236 236 237 239 239 241 243 246 250
189 171 175 216 257 272 94 252 271 229 246 247 259 277 295 315 330 334 336 311 303 293 263 249 245 242 241 237 233 231 232 234 236 237 237 238 238 239 241 239 239 239 238 240 239 240 241 242 245
170 190 234 306 334 268 259 270 292 263 248 265 275 295 309 323 324 340 342 338 308 287 261 253 245 245 247 242 235 232 232 233 236 238 239 240 241 242 241 240 240 240 239 239 240 239 240 242 243
181 274 41 312 210 244 255 252 252 275 269 276 300 294 297 316 309 322 341 349 330 295 273 261 253 251 256 251 242 237 234 234 238 239 239 241 242 243 242 240 238 238 237 238 238 238 238 238 239
194 246 220 252 212 252 260 252 264 273 277 282 278 284 302 307 304 300 318 324 340 315 291 280 267 261 262 258 247 243 241 240 240 243 242 240 242 242 244 241 238 236 235 236 236 238 237 237 238
194 243 239 242 249 240 252 249 283 281 294 297 292 291 287 295 296 296 306 318 313 305 310 288 272 265 264 262 255 253 250 247 244 245 245 245 244 244 244 242 238 234 235 235 235 236 235 235 236
Wind_Speed_850mb
8 6 6 5 7 9 7 11 5 5 4 5 15 11 18 9 12 9 10 24 22 31 32 33 32 29 30 27 29 28 26 25 25 26 27 24 21 18 15 15 15 15 15 16 17 14 12 12 13
10 7 3 3 7 4 10 9 12 11 4 17 13 9 4 12 14 6 19 26 24 31 35 35 36 35 35 35 34 33 31 32 27 26 21 20 20 18 16 15 15 16 18 22 20 18 17 18 19
9 7 3 8 6 9 9 10 10 5 16 11 7 10 7 7 19 12 21 24 26 34 36 38 37 37 34 33 29 33 32 30 30 23 23 21 20 19 18 18 18 19 20 19 19 19 18 18 19
7 5 6 7 12 14 14 13 8 5 10 15 10 7 10 19 7 19 26 24 30 38 40 39 38 37 36 33 33 29 32 30 25 25 22 20 19 18 16 14 16 17 17 17 17 16 15 17 18
8 1 4 2 11 12 12 19 21 12 5 11 16 8 10 14 29 17 19 24 32 40 44 41 40 38 37 36 33 33 29 25 24 23 21 19 17 16 15 15 16 15 13 9 6 4 4 5 6
2 3 4 8 10 12 14 22 15 11 12 7 10 6 12 21 26 26 23 23 31 37 44 44 43 40 38 36 34 33 28 26 25 25 23 21 19 17 16 15 13 10 7 4 2 2 3 5 6
7 7 7 7 10 13 11 11 12 12 7 15 9 7 11 24 25 28 26 28 33 40 47 46 44 42 39 37 36 32 31 28 27 25 24 22 20 18 16 15 14 12 9 4 2 4 6 8 11
4 8 4 8 5 11 11 10 5 22 19 14 22 12 11 11 28 32 33 34 38 43 49 50 47 45 43 42 40 37 35 32 30 28 25 22 21 19 19 17 14 12 9 6 4 3 6 8 10
6 5 5 10 7 10 2 5 6 9 14 16 21 36 24 20 24 36 41 44 47 50 54 55 54 51 48 46 44 42 38 36 34 32 30 26 25 22 20 18 15 13 9 7 5 6 9 12 14
8 6 15 12 7 8 9 8 20 8 14 17 34 45 47 41 35 43 47 49 51 53 55 59 60 57 54 52 51 47 45 42 40 37 35 33 31 29 25 21 18 15 12 11 11 12 14 16 18
12 12 11 16 29 18 12 12 19 13 13 42 43 52 53 52 51 54 56 57 55 54 58 59 61 62 61 60 57 54 51 47 45 43 41 38 35 32 28 26 24 20 17 14 14 15 15 16 18
6 27 23 19 27 14 10 14 12 34 66 64 53 42 42 52 62 67 67 65 61 61 62 62 63 64 65 64 63 58 56 53 50 48 45 42 38 35 33 30 26 21 19 16 14 14 15 18 21
10 11 31 48 43 51 35 38 25 49 82 68 61 61 61 62 65 66 65 65 67 68 65 66 66 67 68 69 67 65 62 59 55 54 50 47 43 41 37 34 31 27 23 21 19 18 18 19 20
9 20 30 31 40 29 16 27 10 75 71 68 57 64 68 73 75 70 72 73 74 71 70 69 71 71 72 72 72 71 67 62 62 60 56 52 49 45 41 37 34 29 27 25 23 21 20 20 21
14 16 17 16 33 18 18 23 23 97 69 72 75 66 61 64 68 81 82 80 79 76 72 75 75 76 78 77 76 76 72 69 69 65 61 57 54 51 46 42 38 33 30 28 24 23 22 23 23
9 3 10 4 14 8 20 35 34 66 53 66 71 68 60 59 68 70 73 79 84 84 83 80 81 83 83 83 80 80 79 76 74 70 66 63 59 55 50 46 43 40 36 33 30 28 27 27 25
5 11 16 24 31 12 16 20 16 31 25 48 58 61 56 63 69 69 72 76 82 82 86 85 85 86 87 87 86 85 82 81 79 75 72 69 65 61 57 53 49 45 42 38 34 31 30 30 29
17 12 12 15 10 9 11 28 31 71 32 58 74 76 81 84 95 88 84 82 84 87 87 88 87 88 88 91 92 90 86 86 83 82 80 75 70 66 61 59 56 51 47 42 37 35 33 32 30
8 12 16 31 18 8 20 38 34 59 49 53 66 87 101 107 112 105 106 104 97 93 92 92 91 91 92 98 101 99 97 94 92 89 85 81 75 70 68 65 61 56 51 46 44 39 35 33 31
20 30 33 35 41 11 34 46 40 34 52 73 75 73 90 106 109 116 113 110 107 101 101 96 92 95 98 102 101 101 99 100 95 93 91 85 81 76 73 70 66 60 57 54 48 42 38 36 30
9 15 36 33 18 13 19 31 29 32 55 81 92 99 84 92 105 103 100 101 96 90 95 94 97 95 101 105 103 104 103 100 100 100 94 92 87 81 78 74 70 65 63 59 53 48 44 38 32
30 25 30 27 7 16 8 25 17 19 23 24 59 72 84 97 106 103 94 84 87 91 81 81 81 87 99 105 109 109 109 106 103 98 95 94 91 86 82 78 75 71 67 64 57 51 48 44 37
20 8 14 8 10 10 12 11 3 16 16 30 39 64 83 78 80 87 86 85 75 62 70 75 76 83 92 100 108 109 108 105 99 95 95 95 91 88 86 83 79 77 72 66 62 58 52 47 41
2 5 4 8 3 14 25 17 4 12 14 13 16 55 61 69 76 81 89 90 73 54 56 67 76 84 89 94 106 110 107 105 99 96 96 93 92 91 89 87 84 79 75 71 66 60 56 50 45
9 9 7 7 2 24 9 14 35 9 20 19 23 48 66 67 68 85 99 99 81 64 64 69 74 82 90 96 100 103 105 99 96 96 95 90 88 93 94 90 88 85 79 74 69 66 61 56 50
16 21 12 14 22 31 10 18 36 19 16 35 45 42 44 48 65 66 77 67 69 68 60 65 73 84 89 86 89 96 100 98 96 95 92 90 87 84 85 87 86 85 80 77 74 71 65 60 56
7 11 10 3 3 5 21 32 37 29 19 12 16 21 46 54 57 60 73 65 57 60 55 65 73 76 78 77 85 93 94 96 97 94 89 90 87 85 83 82 82 83 80 79 77 75 69 65 59
13 0 3 1 7 17 18 14 29 38 29 20 16 32 55 55 64 65 61 73 60 51 52 57 66 68 70 71 78 87 92 94 92 92 89 91 90 90 86 83 80 81 82 81 81 78 74 70 65
1 7 7 3 12 31 34 22 47 53 53 29 25 30 54 79 85 82 67 67 67 57 50 46 49 60 65 72 75 80 88 93 92 94 96 96 94 91 88 85 82 80 82 84 84 82 79 76 71
11 25 29 25 22 26 37 42 20 45 50 41 49 41 45 57 67 81 63 66 75 68 58 49 48 54 56 63 68 72 84 91 92 98 104 100 100 97 94 89 84 80 83 86 88 88 85 81 76
Wind_Direction_850mb
223 240 288 305 40 58 269 261 267 244 222 189 148 174 191 185 169 208 176 175 183 179 181 184 174 176 175 177 178 189 189 192 196 199 206 203 202 202 208 217 218 216 232 249 259 262 266 264 268
226 235 263 89 91 31 272 256 234 223 200 146 141 131 170 228 213 221 172 177 182 185 186 187 189 187 186 182 181 182 184 193 190 196 199 206 218 217 215 220 229 236 245 254 269 277 274 271 270
214 222 230 99 123 194 227 237 241 248 179 172 181 219 234 230 225 222 205 198 190 190 193 193 195 199 203 205 208 200 199 197 212 216 217 221 230 237 236 236 239 244 256 268 277 282 283 280 277
197 194 58 99 231 252 214 250 225 200 214 222 213 239 243 227 219 221 219 203 197 194 196 198 198 201 205 211 216 215 214 223 226 234 237 233 231 232 239 248 254 260 263 268 277 283 285 285 288
188 157 55 259 257 261 246 256 199 187 226 222 200 257 243 241 230 224 203 208 208 200 197 201 203 205 210 217 222 226 230 225 225 228 228 228 228 231 238 244 251 255 262 268 276 293 309 313 313
154 87 52 260 248 264 278 251 191 204 214 219 216 241 254 242 233 235 225 219 208 209 204 205 207 209 213 219 221 222 223 220 214 212 216 222 227 229 226 222 219 217 219 229 257 308 319 328 333
124 91 230 257 265 297 256 198 188 196 222 237 231 194 257 241 228 222 225 216 214 209 212 214 214 215 217 220 220 219 221 221 223 223 222 221 219 214 208 199 194 192 193 203 257 320 335 339 336
158 100 271 253 254 277 322 195 308 218 246 240 210 235 264 293 231 218 217 218 218 217 216 220 222 222 222 219 217 217 221 223 223 226 225 219 213 208 203 200 194 192 189 203 228 293 321 330 334
171 66 243 253 201 255 246 231 251 254 244 222 221 243 250 266 225 220 220 220 220 220 221 222 224 224 222 222 222 220 219 223 224 223 220 218 220 221 216 212 206 207 213 237 275 315 334 342 342
160 154 227 219 228 255 293 244 266 253 243 247 245 248 252 254 242 232 235 232 228 226 225 224 225 225 225 224 223 222 223 224 224 222 220 219 218 218 217 217 219 227 243 269 296 320 331 336 338
187 217 219 258 249 272 270 254 254 228 256 246 252 273 256 250 247 243 244 243 250 239 231 231 228 227 227 227 227 225 226 226 225 222 220 220 220 219 219 219 225 234 250 268 289 304 314 322 325
235 250 240 265 272 270 248 266 253 239 260 275 278 271 260 255 251 250 250 251 249 245 241 237 234 232 231 228 229 229 228 228 227 226 225 224 223 220 219 222 231 242 254 264 275 283 296 308 316
226 254 265 271 275 275 273 259 254 269 278 279 272 267 262 260 261 258 256 255 250 247 245 241 238 237 236 232 232 229 228 229 228 226 227 225 224 224 224 228 232 240 251 261 268 279 292 302 310
244 267 278 286 279 266 243 274 267 272 281 282 277 268 263 262 263 260 250 251 249 248 247 244 241 240 239 237 234 233 230 229 228 227 227 226 224 225 228 231 236 242 247 255 261 272 282 292 303
284 310 312 227 260 232 207 287 227 271 277 279 280 275 270 265 260 259 262 259 259 257 252 247 245 242 240 239 237 235 233 230 230 230 228 227 226 227 227 231 235 241 248 255 263 271 282 290 302
341 328 323 315 123 246 163 269 265 280 273 275 277 276 271 270 271 268 264 263 259 255 252 250 245 244 242 240 239 236 233 231 232 231 230 229 228 228 229 232 234 239 246 252 259 269 279 287 293
341 244 231 305 204 193 183 252 279 284 261 273 283 281 276 281 275 271 270 267 263 261 256 251 246 245 244 241 239 237 235 234 233 231 231 230 229 229 230 232 234 237 241 247 255 263 272 282 290
225 217 252 240 277 175 236 253 278 281 274 269 276 275 275 274 274 273 270 272 271 263 258 253 250 246 242 240 238 235 234 234 233 232 232 231 230 230 231 232 232 235 239 245 251 258 268 276 285
192 225 227 258 257 224 237 262 260 272 277 269 267 268 272 273 275 274 271 269 268 266 256 251 249 247 240 236 234 231 232 232 231 230 231 231 230 230 231 232 235 237 241 246 248 254 263 272 281
237 252 262 273 267 208 263 260 262 259 260 266 266 263 264 271 276 280 276 272 267 263 259 252 248 246 243 240 238 234 233 231 233 231 230 230 230 230 232 234 236 237 239 242 245 251 258 265 274
233 231 259 262 314 232 278 272 244 249 250 259 266 265 268 266 274 281 280 281 278 268 257 252 251 250 245 240 233 231 232 232 231 229 229 229 230 231 232 234 235 236 238 242 244 247 253 259 265
263 228 256 269 326 273 17 293 180 226 230 245 254 264 271 277 279 281 283 279 280 279 267 257 252 251 244 236 232 230 232 230 234 236 233 231 230 231 233 234 235 236 238 240 243 245 249 254 258
244 214 231 219 214 327 196 253 89 172 236 244 255 267 273 280 287 293 295 293 291 281 275 265 252 243 241 238 234 231 230 233 236 235 234 234 232 233 233 234 236 236 237 239 241 243 248 252 255
46 67 60 41 92 274 205 190 37 162 211 259 248 258 269 291 295 299 302 302 297 285 265 256 249 244 240 236 232 231 231 231 232 234 234 234 233 234 235 235 235 237 238 238 240 243 245 247 250
142 87 304 315 69 252 115 190 252 255 255 215 245 269 281 288 294 304 308 301 304 300 267 246 246 244 241 234 232 231 231 233 234 235 235 234 232 234 236 235 236 236 237 239 239 241 243 246 250
189 171 175 216 257 272 94 252 271 229 246 247 259 277 295 315 330 334 336 311 303 293 263 249 245 242 241 237 233 231 232 234 236 237 237 238 238 239 241 239 239 239 238 240 239 240 241 242 245
170 190 234 306 334 268 259 270 292 263 248 265 275 295 309 323 324 340 342 338 308 287 261 253 245 245 247 242 235 232 232 233 236 238 239 240 241 242 241 240 240 240 239 239 240 239 240 242 243
181 274 41 312 210 244 255 252 252 275 269 276 300 294 297 316 309 322 341 349 330 295 273 261 253 251 256 251 242 237 234 234 238 239 239 241 242 243 242 240 238 238 237 238 238 238 238 238 239
194 246 220 252 212 252 260 252 264 273 277 282 278 284 302 307 304 300 318 324 340 315 291 280 267 261 262 258 247 243 241 240 240 243 242 240 242 242 244 241 238 236 235 236 236 238 237 237 238
194 243 239 242 249 240 252 249 283 281 294 297 292 291 287 295 296 296 306 318 313 305 310 288 272 265 264 262 255 253 250 247 244 245 245 245 244 244 244 242 238 234 235 235 235 236 235 235 236